INMARSAT 3-F4

导读

INMARSAT 3-F4是国际海事卫星组织(INMARSAT)第三代海事通信卫星,于1997年6月3日发射入轨。作为全球海事通信网络的重要组成部分,它继承了前代卫星的技术优势,配备多波束天线,可提供稳定的海上移动通信、遇险救援与全球数据连接服务,支撑航运、海事管理等领域的通信需求。该卫星设计寿命超过10年,服役期间为全球海事安全与远洋通信保障发挥了关键作用,推动了全球海上卫星通信网络的覆盖升级,是海事卫星系统从第二代向第三代过渡阶段的重要节点。

基本信息
目录编号:
24819
目录名称:
INMARSAT 3-F4
国际标识:
1997-027A
轨道中心:
EARTH
卫星名称:
INMARSAT 3-F4
卫星全名:
--
卫星状态:
在轨 (已飞行10646 天)
发射日期:
1997-06-03 UTC
国别 :
(Inmarsat)
星等 :
--
轨道信息
数据来源 国际轨道数据 AOE轨道数据
星历时间 2026-07-27T18:37:06+0800
11小时前
查看轨道信息
2026-07-26T09:00:00+0800
1天前
查看轨道信息
半长轴 42383.142km 42383.142km
偏心率 0.001098 0.0011045
轨道倾角 11.595° 11.593°
近地点辐角 71.111° 70.113°
升交点赤经 37.390° 37.403°
平近点角 285.819° 145.052°
近地点 35958.468km 35958.192km
远地点 36051.542km 36051.818km
周期 1447.270分钟 1447.270分钟
每日圈数 0.994977 0.994977
详细信息
使用方式:
暂无
2D轨道图
3D轨道图
轨道高度分析图
轨道倾角分析图
轨道综合分析图
查看轨道综合分析图